Vorticity
3 6 9 10 9 7 8 12 11 13 9 10 7 7 8 8 7 9 8 4 1 1 1 0 1 0 1 2 5 7 6 4 2 4 4 6 4 4 4 6 8 9 7
8 9 12 15 14 11 10 9 8 7 2 3 3 1 3 5 8 9 8 5 2 1 1 2 2 2 1 1 2 7 7 7 5 6 4 6 5 1 7 7 7 10 6
9 10 9 9 10 10 10 9 9 9 10 10 10 10 9 9 11 7 9 5 4 3 2 2 4 3 2 3 5 7 7 6 6 4 5 5 4 2 9 6 9 11 5
8 8 9 10 8 9 9 10 10 9 10 12 16 17 17 14 13 11 13 8 6 4 2 1 6 6 2 5 6 4 2 2 3 3 2 4 5 7 7 3 6 7 3
8 7 6 6 5 4 4 3 2 2 3 3 3 3 2 2 4 9 10 11 9 8 9 6 6 7 6 4 2 3 5 7 7 6 4 7 5 5 5 6 8 11 9
6 5 4 3 4 4 4 5 4 4 4 4 3 2 2 3 4 4 5 4 4 3 1 1 2 3 4 4 5 5 5 6 8 9 8 8 1 0 13 22 22 17 10
1 -0 0 2 2 2 3 3 3 3 3 4 4 4 4 4 4 4 4 4 3 5 7 9 7 6 6 6 6 6 7 6 5 4 4 -1 5 17 9 4 20 15 29
2 4 6 5 6 9 11 15 16 16 13 12 12 12 12 11 11 11 10 8 8 7 7 6 8 9 8 9 9 8 7 6 6 5 3 8 12 20 12 12 7 13 29
5 5 6 9 13 12 8 4 5 5 5 5 4 3 4 2 2 2 3 3 3 2 2 4 5 4 5 7 6 5 4 6 5 4 10 9 8 11 10 11 11 17 26
8 8 7 4 1 3 4 3 4 4 4 6 6 7 8 9 11 12 13 14 13 11 11 9 8 7 4 3 4 4 3 5 5 7 6 10 16 14 16 10 17 14 17
6 4 3 3 4 5 7 7 7 9 10 11 14 16 16 16 15 10 6 4 5 4 5 5 6 5 5 4 5 5 5 6 7 3 4 5 7 13 8 15 10 15 12
5 4 4 5 9 12 14 15 15 15 14 13 11 8 4 1 2 5 7 5 4 4 5 5 5 5 7 7 7 6 6 5 6 5 8 11 2 2 9 9 13 11 16
7 8 11 10 12 12 10 8 9 6 5 6 6 5 5 6 9 7 5 6 7 8 8 8 5 5 5 4 3 5 4 5 6 8 9 2 9 3 7 8 -1 18 18
12 15 15 12 9 9 7 6 8 8 7 6 6 5 6 9 9 10 9 9 11 10 8 7 7 9 7 7 8 8 8 8 12 12 13 4 13 30 14 1 7 10 19
6 6 5 4 3 2 3 6 5 6 10 14 15 12 12 12 12 11 12 13 12 13 6 10 8 6 7 6 11 13 12 12 11 13 14 15 12 13 5 7 18 12 37
5 6 7 7 7 8 6 4 4 2 8 10 8 9 12 13 12 13 17 18 13 12 7 8 9 7 10 11 14 14 12 12 19 16 14 18 20 8 9 18 -0 14 19
2 -0 6 7 4 5 8 10 13 10 10 10 10 13 10 9 9 9 10 10 11 12 15 15 12 13 10 11 8 11 12 14 13 16 15 23 22 -18 23 1 19 22 12
7 5 6 8 10 13 14 10 12 12 12 14 12 11 9 10 9 12 13 14 13 13 15 15 14 15 13 16 14 12 13 9 12 8 9 18 31 20 2 12 22 13 15
14 16 13 15 16 14 14 24 15 12 11 10 13 11 13 12 15 14 11 9 11 12 12 12 12 14 14 13 13 12 13 15 18 18 0 23 20 21 9 22 18 27 25
11 14 9 13 8 10 8 13 9 7 14 11 12 13 14 15 12 12 12 12 10 9 9 10 11 11 11 14 10 14 13 18 17 10 19 39 14 16 15 16 -4 22 27
13 14 15 10 7 13 11 3 13 18 17 17 21 18 15 13 12 10 7 5 5 7 6 6 10 12 14 13 17 15 17 20 23 28 10 -1 42 8 16 13 3 42 18
13 13 10 10 10 13 14 14 15 19 19 14 10 10 9 5 4 2 1 3 5 9 12 12 14 15 18 20 18 18 24 22 18 23 14 8 -2 21 12 13 16 10 17
12 10 8 12 12 10 8 14 17 15 13 11 8 4 2 2 1 4 7 8 14 18 19 20 21 22 23 20 20 28 24 14 18 16 24 16 21 17 14 4 10 24 9
12 14 16 16 18 22 24 15 12 10 7 7 6 6 9 10 11 14 19 24 26 24 23 22 17 19 21 16 24 22 16 14 14 15 19 -4 -1 18 13 10 3 29 28
14 15 20 22 21 15 13 9 3 4 4 4 8 8 9 14 19 21 20 20 19 16 15 17 16 12 14 10 20 16 14 12 16 18 26 11 10 9 5 20 0 30 19
15 21 18 13 8 5 3 4 5 6 6 9 10 13 16 17 19 21 22 22 21 21 20 18 16 18 9 10 19 18 12 17 19 13 21 23 12 0 18 11 18 5 3
Height
5821 5822 5822 5821 5820 5819 5818 5817 5815 5815 5813 5813 5813 5812 5810 5808 5807 5805 5803 5802 5800 5798 5797 5797 5794 5790 5787 5784 5781 5777 5773 5769 5765 5761 5756 5752 5748 5743 5738 5733 5728 5722 5717
5817 5817 5816 5816 5814 5813 5812 5812 5811 5810 5809 5807 5806 5805 5803 5802 5800 5798 5797 5794 5792 5791 5791 5789 5785 5781 5778 5775 5771 5768 5764 5760 5754 5751 5746 5743 5739 5734 5729 5723 5718 5713 5706
5812 5812 5812 5811 5810 5809 5807 5806 5805 5803 5802 5800 5799 5797 5795 5795 5792 5789 5788 5787 5784 5782 5781 5779 5776 5772 5768 5766 5762 5758 5753 5749 5745 5739 5735 5731 5728 5723 5719 5713 5706 5700 5694
5808 5809 5808 5807 5806 5804 5803 5801 5799 5797 5796 5794 5793 5791 5789 5787 5784 5782 5780 5778 5776 5773 5771 5768 5766 5762 5758 5755 5750 5745 5741 5737 5732 5727 5723 5718 5714 5708 5707 5703 5696 5687 5680
5805 5805 5803 5802 5800 5799 5797 5796 5794 5792 5790 5788 5786 5784 5782 5779 5777 5775 5772 5770 5767 5764 5760 5756 5753 5750 5746 5742 5737 5732 5728 5724 5718 5714 5709 5706 5701 5696 5691 5689 5683 5675 5667
5800 5799 5798 5796 5795 5793 5792 5790 5788 5785 5782 5780 5778 5776 5774 5771 5769 5766 5763 5759 5755 5752 5747 5743 5741 5738 5734 5729 5724 5719 5716 5711 5706 5702 5698 5694 5690 5684 5678 5672 5669 5662 5656
5793 5792 5792 5790 5789 5787 5784 5782 5780 5777 5775 5772 5769 5766 5763 5760 5758 5754 5752 5748 5744 5740 5737 5733 5728 5724 5720 5716 5711 5705 5703 5697 5692 5689 5685 5681 5675 5670 5663 5659 5656 5649 5644
5787 5786 5784 5782 5780 5778 5776 5774 5772 5770 5767 5764 5760 5757 5753 5749 5746 5742 5737 5733 5730 5727 5723 5719 5715 5710 5706 5702 5697 5692 5689 5684 5680 5675 5671 5667 5662 5656 5650 5643 5640 5635 5632
5780 5778 5776 5774 5771 5769 5766 5764 5762 5759 5756 5752 5748 5744 5740 5736 5732 5728 5724 5720 5716 5712 5708 5703 5699 5696 5691 5686 5681 5677 5674 5669 5664 5661 5656 5652 5649 5642 5636 5631 5625 5621 5616
5771 5769 5767 5764 5761 5759 5756 5753 5750 5747 5743 5739 5735 5730 5725 5720 5716 5712 5709 5705 5700 5696 5692 5688 5684 5681 5676 5671 5666 5661 5658 5652 5650 5644 5639 5637 5634 5628 5624 5620 5614 5608 5605
5762 5760 5757 5753 5750 5747 5743 5739 5734 5730 5726 5721 5718 5714 5709 5705 5701 5697 5693 5690 5685 5681 5678 5673 5669 5665 5660 5655 5650 5646 5642 5638 5634 5628 5624 5621 5619 5616 5611 5606 5603 5598 5593
5749 5747 5745 5742 5738 5733 5728 5724 5720 5716 5712 5707 5703 5698 5695 5692 5688 5682 5678 5674 5670 5665 5661 5656 5652 5648 5644 5638 5632 5628 5625 5621 5617 5613 5606 5605 5604 5601 5599 5594 5590 5585 5582
5739 5736 5732 5729 5724 5720 5715 5711 5707 5703 5698 5694 5689 5685 5680 5676 5671 5666 5661 5656 5653 5649 5644 5639 5633 5628 5623 5618 5612 5607 5603 5600 5598 5595 5591 5589 5587 5587 5587 5580 5576 5575 5571
5728 5725 5721 5716 5712 5707 5703 5697 5693 5688 5683 5678 5674 5668 5663 5659 5654 5649 5645 5640 5635 5631 5627 5621 5616 5610 5605 5599 5595 5589 5584 5581 5578 5575 5572 5570 5570 5570 5570 5566 5562 5560 5558
5716 5711 5707 5703 5698 5692 5687 5682 5677 5671 5667 5663 5658 5653 5648 5643 5638 5632 5627 5622 5618 5613 5607 5602 5598 5592 5587 5581 5575 5568 5563 5560 5556 5553 5551 5550 5554 5554 5552 5548 5547 5546 5543
5703 5698 5693 5688 5682 5676 5671 5666 5661 5656 5651 5646 5640 5634 5629 5624 5618 5614 5609 5605 5600 5595 5589 5583 5578 5573 5566 5561 5553 5544 5539 5538 5534 5533 5533 5533 5536 5538 5535 5533 5531 5531 5530
5687 5682 5677 5671 5666 5661 5655 5648 5644 5639 5633 5627 5621 5615 5609 5604 5598 5593 5588 5583 5578 5573 5567 5562 5556 5551 5545 5539 5532 5525 5517 5517 5516 5516 5516 5516 5518 5519 5516 5517 5515 5513 5514
5671 5665 5659 5653 5646 5641 5635 5630 5623 5617 5611 5605 5599 5592 5587 5582 5577 5571 5566 5561 5557 5552 5547 5542 5537 5531 5526 5520 5513 5504 5500 5500 5499 5499 5497 5496 5501 5502 5500 5499 5497 5498 5498
5654 5648 5642 5637 5631 5624 5618 5611 5604 5597 5590 5584 5577 5571 5565 5560 5555 5550 5546 5541 5535 5531 5525 5520 5514 5509 5505 5499 5492 5484 5481 5480 5481 5481 5482 5480 5482 5483 5483 5482 5482 5483 5484
5637 5630 5623 5616 5609 5602 5595 5588 5582 5575 5569 5563 5557 5551 5544 5538 5533 5528 5523 5519 5512 5509 5504 5498 5492 5485 5482 5478 5472 5463 5460 5461 5461 5464 5465 5465 5464 5465 5466 5466 5466 5468 5470
5612 5606 5599 5593 5586 5579 5573 5566 5560 5552 5545 5539 5534 5529 5523 5517 5511 5506 5502 5496 5491 5485 5480 5473 5469 5463 5459 5456 5451 5445 5442 5440 5442 5445 5449 5448 5447 5450 5452 5453 5454 5455 5457
5589 5582 5576 5571 5564 5557 5550 5543 5536 5531 5526 5522 5517 5511 5505 5497 5490 5483 5478 5471 5462 5457 5453 5447 5445 5441 5437 5433 5429 5427 5424 5423 5422 5428 5430 5432 5435 5437 5439 5440 5442 5444 5446
5571 5564 5558 5551 5543 5535 5528 5523 5517 5511 5507 5502 5496 5488 5482 5473 5465 5456 5450 5444 5437 5428 5425 5421 5419 5419 5417 5413 5410 5409 5409 5408 5408 5410 5413 5417 5420 5423 5426 5428 5430 5433 5435
5549 5544 5538 5531 5525 5517 5510 5503 5497 5492 5487 5480 5473 5464 5456 5449 5441 5432 5423 5416 5410 5404 5399 5397 5396 5395 5398 5396 5394 5394 5393 5393 5393 5394 5398 5402 5408 5412 5413 5416 5420 5422 5424
5530 5524 5518 5512 5505 5498 5492 5486 5479 5473 5466 5459 5450 5440 5432 5425 5417 5409 5400 5392 5388 5381 5379 5376 5374 5374 5379 5380 5379 5378 5379 5380 5380 5381 5386 5391 5396 5400 5403 5405 5409 5412 5414
5512 5506 5500 5493 5487 5481 5475 5466 5460 5453 5444 5436 5426 5418 5408 5400 5390 5382 5377 5370 5363 5360 5357 5355 5351 5355 5359 5364 5365 5365 5367 5367 5368 5371 5374 5378 5383 5388 5392 5396 5399 5403 5408